Time,TemperatureF,DewpointF,PressureIn,WindDirection,WindDirectionDegrees,WindSpeedMPH,WindSpeedGustMPH,Humidity,HourlyPrecipIn,Conditions,Clouds,dailyrainin,SolarRadiationWatts/m^2,SoftwareType,DateUTC
2013-02-04 00:01:00,14.0,12.0,-100.00,SSW,200,4.0,5.0,91,-99.99,,,-99.99,0.000000,,2013-02-04 07:01:00,
2013-02-04 00:11:00,14.0,12.0,-100.00,SSE,150,5.0,5.0,90,-99.99,,,-99.99,0.010000,,2013-02-04 07:11:00,
2013-02-04 00:31:00,14.0,12.0,-100.00,SSE,157,4.0,5.0,92,-99.99,,,-99.99,0.020000,,2013-02-04 07:31:00,
2013-02-04 01:01:00,14.0,12.0,-100.00,South,187,1.0,2.0,91,-99.99,,,-99.99,0.070000,,2013-02-04 08:01:00,
2013-02-04 01:31:00,13.0,11.0,-100.00,WSW,256,0.0,1.0,91,-99.99,,,-99.99,0.020000,,2013-02-04 08:31:00,
2013-02-04 01:52:00,11.0,9.0,-100.00,NNW,337,1.0,2.0,91,-99.99,,,-99.99,0.000000,,2013-02-04 08:52:00,
2013-02-04 02:01:00,11.0,9.0,-100.00,NNW,337,1.0,2.0,91,-99.99,,,-99.99,0.000000,,2013-02-04 09:01:00,
2013-02-04 02:11:00,12.0,9.0,-100.00,South,178,1.0,2.0,90,-99.99,,,-99.99,0.000000,,2013-02-04 09:11:00,
2013-02-04 02:21:00,12.0,9.0,-100.00,South,178,1.0,2.0,90,-99.99,,,-99.99,0.000000,,2013-02-04 09:21:00,
2013-02-04 02:31:00,11.0,9.0,-100.00,East,95,0.0,1.0,90,-99.99,,,-99.99,0.010000,,2013-02-04 09:31:00,
2013-02-04 02:41:00,11.0,9.0,-100.00,East,95,0.0,1.0,90,-99.99,,,-99.99,0.010000,,2013-02-04 09:41:00,
2013-02-04 02:51:00,11.0,8.0,-100.00,South,184,2.0,3.0,89,-99.99,,,-99.99,0.010000,,2013-02-04 09:51:00,
2013-02-04 03:11:00,10.0,8.0,-100.00,South,191,1.0,2.0,90,-99.99,,,-99.99,0.020000,,2013-02-04 10:11:00,
2013-02-04 03:21:00,10.0,8.0,-100.00,South,191,1.0,2.0,90,-99.99,,,-99.99,0.020000,,2013-02-04 10:21:00,
2013-02-04 03:32:00,10.0,8.0,-100.00,NNW,345,2.0,4.0,91,-99.99,,,-99.99,0.000000,,2013-02-04 10:32:00,
2013-02-04 04:01:00,8.0,6.0,-100.00,North,0,0.0,1.0,89,-99.99,,,-99.99,0.000000,,2013-02-04 11:01:00,
2013-02-04 04:41:00,8.0,6.0,-100.00,North,7,0.0,2.0,89,-99.99,,,-99.99,0.000000,,2013-02-04 11:41:00,
2013-02-04 05:02:00,8.0,6.0,-100.00,NNW,346,1.0,1.0,89,-99.99,,,-99.99,0.000000,,2013-02-04 12:02:00,
2013-02-04 05:32:00,8.0,5.0,-100.00,North,0,0.0,1.0,89,-99.99,,,-99.99,0.000000,,2013-02-04 12:32:00,
2013-02-04 05:41:00,8.0,5.0,-100.00,NW,325,1.0,2.0,88,-99.99,,,-99.99,0.010000,,2013-02-04 12:41:00,
2013-02-04 06:02:00,8.0,6.0,-100.00,SSE,154,2.0,2.0,89,-99.99,,,-99.99,0.000000,,2013-02-04 13:02:00,
2013-02-04 06:41:00,8.0,5.0,-100.00,SSE,157,1.0,2.0,89,-99.99,,,-99.99,0.000000,,2013-02-04 13:41:00,
2013-02-04 07:02:00,9.0,6.0,-100.00,NNW,327,2.0,2.0,89,-99.99,,,-99.99,0.000000,,2013-02-04 14:02:00,
2013-02-04 07:11:00,7.0,5.0,-100.00,NW,310,1.0,2.0,88,-99.99,,,-99.99,0.000000,,2013-02-04 14:11:00,
2013-02-04 07:21:00,7.0,4.0,-100.00,WNW,301,2.0,2.0,88,-99.99,,,-99.99,0.010000,,2013-02-04 14:21:00,
2013-02-04 07:41:00,7.0,5.0,-100.00,NNE,19,2.0,2.0,89,-99.99,,,-99.99,0.460000,,2013-02-04 14:41:00,
2013-02-04 08:03:00,7.0,5.0,-100.00,NNE,30,2.0,2.0,89,-99.99,,,-99.99,2.940000,,2013-02-04 15:03:00,
2013-02-04 08:11:00,8.0,5.0,-100.00,ENE,66,1.0,2.0,89,-99.99,,,-99.99,8.130000,,2013-02-04 15:11:00,
2013-02-04 08:22:00,8.0,6.0,-100.00,SSE,152,0.0,1.0,89,-99.99,,,-99.99,6.380000,,2013-02-04 15:22:00,
2013-02-04 08:33:00,9.0,6.0,-100.00,SSE,154,1.0,2.0,89,-99.99,,,-99.99,19.570000,,2013-02-04 15:33:00,
2013-02-04 08:43:00,9.0,7.0,-100.00,SE,146,2.0,4.0,89,-99.99,,,-99.99,44.799999,,2013-02-04 15:43:00,
2013-02-04 09:02:00,11.0,8.0,-100.00,SSE,159,3.0,3.0,90,-99.99,,,-99.99,70.669998,,2013-02-04 16:02:00,
2013-02-04 10:42:00,14.0,12.0,-100.00,North,4,4.0,5.0,90,-99.99,,,-99.99,281.000000,,2013-02-04 17:42:00,
2013-02-04 10:52:00,15.0,13.0,-100.00,North,357,4.0,4.0,91,-99.99,,,-99.99,335.600006,,2013-02-04 17:52:00,
2013-02-04 11:03:00,15.0,13.0,-100.00,North,357,4.0,4.0,91,-99.99,,,-99.99,335.600006,,2013-02-04 18:03:00,
2013-02-04 11:11:00,16.0,14.0,-100.00,North,10,4.0,5.0,90,-99.99,,,-99.99,381.700012,,2013-02-04 18:11:00,
2013-02-04 11:21:00,16.0,14.0,-100.00,North,10,4.0,5.0,90,-99.99,,,-99.99,381.700012,,2013-02-04 18:21:00,
2013-02-04 11:31:00,18.0,16.0,-100.00,North,359,2.0,3.0,91,-99.99,,,-99.99,238.300003,,2013-02-04 18:31:00,
2013-02-04 11:52:00,20.0,18.0,-100.00,NNW,341,4.0,5.0,92,-99.99,,,-99.99,355.700012,,2013-02-04 18:52:00,
2013-02-04 12:01:00,21.0,20.0,-100.00,North,359,4.0,5.0,93,-99.99,,,-99.99,578.799988,,2013-02-04 19:01:00,
2013-02-04 12:11:00,22.0,20.0,-100.00,North,9,3.0,4.0,92,-99.99,,,-99.99,601.400024,,2013-02-04 19:11:00,
2013-02-04 12:21:00,22.0,20.0,-100.00,North,9,3.0,4.0,92,-99.99,,,-99.99,601.400024,,2013-02-04 19:21:00,
2013-02-04 12:41:00,26.0,22.0,-100.00,NW,316,3.0,4.0,87,-99.99,,,-99.99,618.099976,,2013-02-04 19:41:00,
2013-02-04 12:51:00,26.0,22.0,-100.00,NW,316,3.0,4.0,87,-99.99,,,-99.99,618.099976,,2013-02-04 19:51:00,
2013-02-04 13:31:00,29.0,21.0,-100.00,North,355,5.0,6.0,71,-99.99,,,-99.99,622.000000,,2013-02-04 20:31:00,
2013-02-04 13:42:00,29.0,21.0,-100.00,North,355,5.0,6.0,71,-99.99,,,-99.99,622.000000,,2013-02-04 20:42:00,
2013-02-04 13:52:00,32.0,22.0,-100.00,NW,308,2.0,6.0,66,-99.99,,,-99.99,607.599976,,2013-02-04 20:52:00,
2013-02-04 14:01:00,33.0,21.0,-100.00,NNW,343,4.0,5.0,62,-99.99,,,-99.99,600.000000,,2013-02-04 21:01:00,
2013-02-04 14:11:00,32.0,21.0,-100.00,NNW,330,4.0,5.0,62,-99.99,,,-99.99,589.599976,,2013-02-04 21:11:00,
2013-02-04 14:22:00,32.0,21.0,-100.00,NNW,330,4.0,5.0,62,-99.99,,,-99.99,589.599976,,2013-02-04 21:22:00,
2013-02-04 14:31:00,34.0,21.0,-100.00,NW,320,3.0,4.0,58,-99.99,,,-99.99,564.900024,,2013-02-04 21:31:00,
2013-02-04 15:11:00,38.0,24.0,-100.00,WSW,257,2.0,5.0,57,-99.99,,,-99.99,493.899994,,2013-02-04 22:11:00,
2013-02-04 15:21:00,38.0,24.0,-100.00,WSW,257,2.0,5.0,57,-99.99,,,-99.99,493.899994,,2013-02-04 22:21:00,
2013-02-04 15:32:00,39.0,24.0,-100.00,South,183,4.0,4.0,53,-99.99,,,-99.99,449.399994,,2013-02-04 22:32:00,
2013-02-04 15:41:00,39.0,24.0,-100.00,South,183,4.0,4.0,53,-99.99,,,-99.99,449.399994,,2013-02-04 22:41:00,
2013-02-04 15:51:00,39.0,22.0,-100.00,South,175,3.0,4.0,51,-99.99,,,-99.99,399.399994,,2013-02-04 22:51:00,
2013-02-04 16:11:00,39.0,22.0,-100.00,NNW,338,2.0,3.0,50,-99.99,,,-99.99,344.799988,,2013-02-04 23:11:00,
2013-02-04 16:32:00,38.0,22.0,-100.00,NNW,342,3.0,4.0,51,-99.99,,,-99.99,286.700012,,2013-02-04 23:32:00,
2013-02-04 16:52:00,38.0,24.0,-100.00,NNW,331,3.0,4.0,56,-99.99,,,-99.99,225.800003,,2013-02-04 23:52:00,
2013-02-04 17:11:00,37.0,23.0,-100.00,North,349,2.0,4.0,58,-99.99,,,-99.99,168.899994,,2013-02-05 00:11:00,
2013-02-04 17:21:00,36.0,24.0,-100.00,North,355,5.0,5.0,60,-99.99,,,-99.99,141.399994,,2013-02-05 00:21:00,
2013-02-04 17:31:00,35.0,24.0,-100.00,North,351,5.0,6.0,62,-99.99,,,-99.99,109.099998,,2013-02-05 00:31:00,
2013-02-04 17:51:00,33.0,23.0,-100.00,North,349,3.0,4.0,65,-99.99,,,-99.99,34.439999,,2013-02-05 00:51:00,
2013-02-04 18:11:00,31.0,23.0,-100.00,NNW,332,2.0,4.0,71,-99.99,,,-99.99,6.160000,,2013-02-05 01:11:00,
2013-02-04 18:32:00,29.0,22.0,-100.00,North,3,1.0,2.0,74,-99.99,,,-99.99,0.660000,,2013-02-05 01:32:00,
2013-02-04 19:01:00,24.0,20.0,-100.00,South,178,5.0,5.0,82,-99.99,,,-99.99,0.000000,,2013-02-05 02:01:00,
2013-02-04 19:11:00,25.0,21.0,-100.00,SSE,155,3.0,4.0,84,-99.99,,,-99.99,0.000000,,2013-02-05 02:11:00,
2013-02-04 19:21:00,24.0,20.0,-100.00,SSE,160,3.0,4.0,85,-99.99,,,-99.99,0.000000,,2013-02-05 02:21:00,
2013-02-04 19:41:00,24.0,21.0,-100.00,WSW,246,2.0,3.0,86,-99.99,,,-99.99,0.010000,,2013-02-05 02:41:00,
2013-02-04 19:52:00,23.0,20.0,-100.00,West,261,0.0,1.0,86,-99.99,,,-99.99,0.010000,,2013-02-05 02:52:00,
2013-02-04 20:01:00,23.0,20.0,-100.00,North,8,2.0,3.0,87,-99.99,,,-99.99,0.050000,,2013-02-05 03:01:00,
2013-02-04 21:52:00,19.0,18.0,-100.00,North,356,2.0,2.0,93,-99.99,,,-99.99,0.090000,,2013-02-05 04:52:00,
2013-02-04 22:02:00,17.0,16.0,-100.00,NW,311,3.0,4.0,92,-99.99,,,-99.99,0.040000,,2013-02-05 05:02:00,
2013-02-04 22:31:00,18.0,16.0,-100.00,WNW,298,0.0,2.0,93,-99.99,,,-99.99,0.120000,,2013-02-05 05:31:00,
2013-02-04 23:01:00,16.0,14.0,-100.00,SSE,167,3.0,4.0,92,-99.99,,,-99.99,0.060000,,2013-02-05 06:01:00,
2013-02-04 23:11:00,16.0,14.0,-100.00,SE,146,3.0,3.0,92,-99.99,,,-99.99,0.050000,,2013-02-05 06:11:00,
2013-02-04 23:21:00,16.0,14.0,-100.00,SE,146,3.0,3.0,92,-99.99,,,-99.99,0.050000,,2013-02-05 06:21:00,